YAOGAN-4

Last updated on Thu Sep 10 2026 00:02:43 GMT+0000 (Coordinated Universal Time)

1 33446U 08061A 26252.42422666 .00000601 00000+0 79800-4 0 9998 2 33446 97.9320 185.3240 0014806 150.9613 209.2427 14.83334226958159
UTC large
Height (km)
Speed (km/s)
/
Latitude / Longitude
Inclination (degrees)
Orbital Period (minutes)
Azimuth
Elevation
Range (km)
Doppler Factor

Next 0 passes for location: London (51.5072 / 0.1276)

No passes found over London.
YAOGAN-4